[[{"header":{"parameterUnit":"m.s-1","parameterCategory":1,"la1":30.2991,"la2":30.254,"lo1":-89.0895,"lo2":-89.0444,"dy":0.0017,"dx":0.0017,"nx":28,"ny":28,"refTime":"2025-04-06T09:00:00:Z","depth":0,"parameterNumber":2,"parameterNumberName":"U-component_of_WINDS"},"data":[0,0,0,0,0,0,0,0,0,0,0,0,0,0,0,0,0,0,0,0,0,0,0,0,0,0,0,0,0,0,0,0,0,0,0,0,0,0,0,0,0,0,0,0,0,0,0,0,0,0,0,0,0,0,0,0,0,0,4.558,4.5581,0,4.5644,4.5644,4.5645,4.5623,4.5621,4.562,4.5619,4.5681,4.5684,4.5687,0,0,0,0,0,0,0,0,0,0,0,0,0,4.5439,4.5442,4.558,4.5581,4.5582,4.5643,4.5644,4.5645,4.5623,4.5621,4.5619,4.5618,4.568,4.5683,4.5687,0,0,0,0,0,0,0,0,0,0,0,0,0,4.5501,4.5443,4.558,4.5578,4.5579,4.5643,4.5644,4.5645,4.5623,4.5621,4.5619,4.5617,4.5679,4.5683,4.5687,4.5757,0,0,4.5701,4.5703,0,0,0,0,0,0,0,0,4.5498,4.5506,4.5578,4.5578,4.5579,4.5623,4.5617,4.5683,4.5624,4.5606,4.5618,4.5616,4.5663,4.5669,4.5685,4.576,4.5762,4.5701,4.5704,4.5706,4.5707,0,0,0,0,0,0,0,4.5493,4.5503,4.5605,4.5579,4.558,4.5574,4.558,4.563,4.5646,4.5608,4.5606,4.5614,4.5663,4.5681,4.5686,4.5763,4.5701,4.5705,4.5708,4.571,4.59,4.5902,0,0,0,0,0,0,4.5489,4.55,4.5603,4.5607,4.5532,4.5578,4.5585,4.5611,4.5645,4.5648,4.5616,4.5613,4.5674,4.5681,4.5689,4.5773,4.5706,4.571,4.5713,4.5898,4.59,4.5903,0,0,0,0,0,0,4.5486,4.5498,4.5601,4.5553,4.5566,4.5583,4.5612,4.5613,4.5631,4.5651,4.5654,4.5631,4.5673,4.5682,4.5741,4.5775,4.5712,4.5716,4.5895,4.5898,4.5902,4.5942,0,0,0,0,0,0,4.5482,4.5497,4.5524,4.5554,4.5568,4.5652,4.5614,4.5616,4.5639,4.5636,4.5666,4.5669,4.5672,4.5734,4.5745,4.578,4.572,4.5892,4.5896,4.5901,4.5938,4.5947,4.5954,0,0,0,0,0,4.5477,4.5532,4.5525,4.5538,4.5602,4.5654,4.5662,4.5665,4.5642,4.5669,4.5682,4.5668,4.577,4.574,4.5752,4.5789,4.589,4.5895,4.59,4.5934,4.5945,4.5954,0,0,0,0,0,0,4.5504,4.5536,4.5529,4.5595,4.5622,4.565,4.5684,4.5676,4.5709,4.5705,4.5706,4.5713,4.5773,4.5787,4.5754,4.5859,4.5826,4.5834,4.5848,4.5858,4.5866,4.5861,4.5723,0,0,0,0,0,4.5518,4.5558,4.5583,4.5639,4.5654,4.5667,4.5689,4.5689,4.5717,4.5728,4.5745,4.5772,4.581,4.5835,4.5871,4.594,4.5947,4.5971,4.598,4.5986,4.5993,4.6032,4.6043,4.5921,4.5921,4.5921,0,0,4.5546,4.5569,4.5594,4.5646,4.5666,4.5708,4.5676,4.5721,4.5751,4.5734,4.5791,4.5805,4.5835,4.59,4.5929,4.5913,4.6029,4.5993,4.5998,4.6002,4.6039,4.605,4.6061,4.5924,4.5924,4.5923,0,0,4.562,4.5641,4.5691,4.5713,4.5746,4.5754,4.5766,4.5796,4.5805,4.5862,4.5851,4.5887,4.5952,4.5975,4.5995,4.6079,4.6068,4.6091,4.6134,4.6171,4.6181,4.619,4.622,4.6231,4.6098,4.6098,4.6098,0,4.5651,4.5713,4.5717,4.5763,4.5787,4.5775,4.5825,4.5846,4.5889,4.5905,4.5887,4.597,4.5989,4.6059,4.608,4.6097,4.6111,4.6087,4.618,4.6188,4.6196,4.6226,4.6237,4.61,4.61,4.61,4.61,0,4.575,4.5794,4.583,4.5873,4.5901,4.5949,4.596,4.5987,4.5985,4.5996,4.6055,4.6078,4.6119,4.6136,4.6134,4.6207,4.6196,4.6179,4.6146,4.6211,4.6238,4.6249,4.6104,4.6103,4.6102,4.6102,0,0,4.5841,4.5887,4.59,4.592,4.5957,4.599,4.6038,4.608,4.6104,4.6134,4.6174,4.6231,4.6216,4.6239,4.6239,4.6273,4.6339,4.6251,4.6252,4.6267,4.6421,4.6434,4.6447,4.6332,4.6335,4.6336,4.6419,0,4.5917,4.6003,4.6008,4.6085,4.6126,4.6116,4.6158,4.6185,4.6197,4.6233,4.6246,4.6286,4.6263,4.6277,4.631,4.6324,4.637,4.6318,4.637,4.6372,4.6362,4.6461,4.6474,4.6551,4.643,4.6432,4.6433,0,4.6018,4.6053,4.6134,4.6167,4.6184,4.6222,4.6261,4.6296,4.6326,4.6333,4.6359,4.6356,4.6405,4.6372,4.644,4.6405,4.6426,4.6437,4.644,4.6444,4.6406,4.6468,4.6576,4.6587,4.645,4.6448,4.6447,0,4.6076,4.6144,4.6202,4.6219,4.6258,4.6285,4.6302,4.6331,4.6356,4.639,4.6407,4.6446,4.6468,4.6498,4.6506,4.648,4.6575,4.6541,4.6581,4.6581,4.6601,4.6599,4.6713,4.6615,4.6615,4.6615,4.6615,0,4.6161,4.6211,4.6229,4.6264,4.632,4.6327,4.6382,4.6398,4.6424,4.6462,4.6456,4.6492,4.65,4.6538,4.6544,4.6601,4.661,4.6617,4.6618,4.6617,4.6616,4.6631,4.6625,4.6618,4.6617,4.6617,4.6616,0,4.6235,4.6249,4.6311,4.6344,4.6354,4.6394,4.6421,4.6456,4.6468,4.6516,4.6528,4.6547,4.6591,4.6602,4.6654,4.6659,4.6725,4.6721,4.6715,4.6715,4.6755,4.6751,4.6881,4.6899,4.679,4.6791,4.6792,0,4.6288,4.6327,4.6365,4.6391,4.641,4.6451,4.6477,4.6485,4.6513,4.6552,4.6582,4.6626,4.6661,4.6733,4.6751,4.6791,4.6788,4.6831,4.6794,4.6792,4.6789,4.6786,4.679,4.6838,4.6839,4.684,4.684,0,4.6381,4.6387,4.6425,4.6467,4.6499,4.6532,4.6563,4.6584,4.6597,4.6628,4.6674,4.6702,4.6757,4.68,4.6842,4.6859,4.6852,4.6852,4.6864,4.6863,4.6858,4.6862,4.6734,4.6849,4.6848,4.6847,4.6847,4.6847,4.6447,4.6481,4.6514,4.6557,4.6582,4.6612,4.6646,4.6663,4.6702,4.6748,4.675,4.6801,4.6832,4.6887,4.6907,4.6946,4.6933,4.6949,4.6954,4.6958,4.6961,4.6853,4.6954,4.6953,4.6953,4.6953,4.6953,0,4.654,4.6561,4.6601,4.6646,4.668,4.6672,4.6707,4.6736,4.6781,4.6811,4.6846,4.69,4.6943,4.6965,4.7008,4.7035,4.7033,4.7046,4.7044,4.7049,4.697,4.6956,4.7047,4.7047,4.7047,4.7047,4.7047,4.7047,4.6592,4.6651,4.666,4.6731,4.6751,4.6801,4.6822,4.685,4.6874,4.6934,4.6971,4.6985,4.7013,4.7058,4.7097,4.7102,4.7118,4.7133,4.7137,4.7063,4.7054,4.7045,4.7031,4.7137,4.7137,4.7212,4.7212,4.7213]},{"header":{"parameterUnit":"m.s-1","parameterCategory":1,"la1":30.2991,"la2":30.254,"lo1":-89.0895,"lo2":-89.0444,"dy":0.0017,"dx":0.0017,"nx":28,"ny":28,"refTime":"2025-04-06T09:00:00:Z","depth":0,"parameterNumber":3,"parameterNumberName":"V-component_of_WINDS"},"data":[0,0,0,0,0,0,0,0,0,0,0,0,0,0,0,0,0,0,0,0,0,0,0,0,0,0,0,0,0,0,0,0,0,0,0,0,0,0,0,0,0,0,0,0,0,0,0,0,0,0,0,0,0,0,0,0,0,0,-5.2169,-5.217,0,-5.2241,-5.2242,-5.2243,-5.2233,-5.2232,-5.2231,-5.2229,-5.2301,-5.2304,-5.2307,0,0,0,0,0,0,0,0,0,0,0,0,0,-5.2024,-5.2027,-5.2169,-5.217,-5.2171,-5.2241,-5.2242,-5.2243,-5.2233,-5.2232,-5.223,-5.2229,-5.23,-5.2303,-5.2307,0,0,0,0,0,0,0,0,0,0,0,0,0,-5.209,-5.2028,-5.2169,-5.2175,-5.2176,-5.2241,-5.2242,-5.2243,-5.2233,-5.2232,-5.223,-5.2228,-5.2299,-5.2303,-5.2308,-5.2371,0,0,-5.2321,-5.2323,0,0,0,0,0,0,0,0,-5.2087,-5.2096,-5.2173,-5.2174,-5.2176,-5.2226,-5.2217,-5.2286,-5.2234,-5.2212,-5.2229,-5.2227,-5.2277,-5.2284,-5.2301,-5.2374,-5.2377,-5.2322,-5.2324,-5.2326,-5.2328,0,0,0,0,0,0,0,-5.2082,-5.2093,-5.2197,-5.2174,-5.2176,-5.2174,-5.2181,-5.223,-5.2253,-5.2213,-5.2213,-5.2222,-5.2278,-5.2296,-5.2302,-5.2378,-5.2322,-5.2326,-5.2328,-5.233,-5.2509,-5.2511,0,0,0,0,0,0,-5.2076,-5.2089,-5.2195,-5.22,-5.2126,-5.2178,-5.2186,-5.2212,-5.2253,-5.2257,-5.2223,-5.2221,-5.229,-5.2297,-5.2305,-5.2383,-5.2326,-5.2331,-5.2333,-5.2507,-5.251,-5.2512,0,0,0,0,0,0,-5.2073,-5.2086,-5.2192,-5.2144,-5.2158,-5.2182,-5.2211,-5.2214,-5.2233,-5.226,-5.2264,-5.2238,-5.2289,-5.2299,-5.2355,-5.2385,-5.2333,-5.2337,-5.2505,-5.2508,-5.2511,-5.2539,0,0,0,0,0,0,-5.2069,-5.2085,-5.2109,-5.2145,-5.216,-5.2241,-5.2213,-5.2217,-5.2241,-5.2239,-5.2275,-5.2279,-5.2288,-5.2349,-5.236,-5.2391,-5.234,-5.2502,-5.2506,-5.251,-5.2535,-5.2543,-5.2549,0,0,0,0,0,-5.2064,-5.2113,-5.211,-5.2123,-5.2191,-5.2243,-5.2252,-5.2261,-5.2243,-5.2268,-5.2286,-5.2278,-5.238,-5.2354,-5.2367,-5.24,-5.2501,-5.2505,-5.251,-5.2532,-5.2541,-5.2549,0,0,0,0,0,0,-5.2078,-5.2117,-5.2115,-5.2177,-5.2207,-5.2241,-5.2272,-5.227,-5.2305,-5.2301,-5.2311,-5.232,-5.2377,-5.2394,-5.2364,-5.2464,-5.2438,-5.2445,-5.2451,-5.2459,-5.2466,-5.2461,-5.2344,0,0,0,0,0,-5.2089,-5.2128,-5.216,-5.2212,-5.2228,-5.2248,-5.2271,-5.2276,-5.2307,-5.2319,-5.2341,-5.2371,-5.2411,-5.2436,-5.2473,-5.2538,-5.2547,-5.2567,-5.2574,-5.2579,-5.2585,-5.2623,-5.2632,-5.2527,-5.2527,-5.2527,0,0,-5.2111,-5.2137,-5.2161,-5.2216,-5.224,-5.2281,-5.2258,-5.2302,-5.2332,-5.2325,-5.2381,-5.2398,-5.2433,-5.2495,-5.2523,-5.251,-5.2616,-5.2585,-5.2589,-5.2592,-5.2628,-5.2638,-5.2647,-5.2531,-5.253,-5.2529,0,0,-5.2172,-5.2195,-5.2242,-5.2267,-5.2304,-5.2317,-5.2329,-5.2364,-5.2376,-5.2432,-5.2429,-5.2465,-5.2532,-5.2557,-5.2579,-5.2653,-5.2647,-5.2664,-5.2699,-5.2735,-5.2744,-5.2751,-5.2779,-5.2788,-5.2671,-5.2671,-5.2671,0,-5.2194,-5.2256,-5.2266,-5.2311,-5.2336,-5.2333,-5.2381,-5.2404,-5.2451,-5.2469,-5.2454,-5.254,-5.2563,-5.2631,-5.265,-5.2667,-5.2681,-5.266,-5.2742,-5.2749,-5.2756,-5.2783,-5.2793,-5.2672,-5.2672,-5.2672,-5.2672,0,-5.2282,-5.2325,-5.2358,-5.2406,-5.2434,-5.248,-5.2498,-5.2526,-5.2529,-5.2544,-5.2602,-5.263,-5.2674,-5.269,-5.2693,-5.276,-5.2752,-5.274,-5.2713,-5.2768,-5.2793,-5.2803,-5.2675,-5.2675,-5.2674,-5.2674,0,0,-5.2352,-5.2407,-5.2419,-5.2441,-5.2483,-5.2516,-5.2563,-5.2607,-5.2631,-5.2664,-5.2704,-5.2762,-5.2752,-5.2777,-5.2783,-5.2815,-5.2873,-5.2799,-5.28,-5.2813,-5.2951,-5.296,-5.2971,-5.2871,-5.2873,-5.2874,-5.2948,0,-5.2418,-5.2501,-5.2513,-5.2587,-5.2627,-5.2627,-5.2668,-5.2698,-5.2714,-5.2751,-5.2769,-5.281,-5.2793,-5.2808,-5.284,-5.286,-5.2901,-5.2854,-5.2908,-5.291,-5.29,-5.2984,-5.2993,-5.3062,-5.2958,-5.2959,-5.2961,0,-5.2505,-5.2543,-5.2621,-5.2659,-5.2677,-5.2713,-5.2756,-5.2791,-5.2826,-5.2836,-5.2865,-5.2868,-5.2917,-5.2889,-5.2958,-5.2926,-5.2949,-5.2962,-5.2965,-5.297,-5.2939,-5.2992,-5.3083,-5.3094,-5.2976,-5.2975,-5.2974,0,-5.255,-5.262,-5.2676,-5.2695,-5.2741,-5.2767,-5.2787,-5.2821,-5.2847,-5.2884,-5.2902,-5.2944,-5.2967,-5.3,-5.3015,-5.2993,-5.3083,-5.3056,-5.3093,-5.3092,-5.3111,-5.311,-5.3208,-5.3125,-5.3125,-5.3125,-5.3125,0,-5.2623,-5.267,-5.2697,-5.2732,-5.2786,-5.28,-5.2853,-5.2872,-5.2903,-5.2942,-5.2943,-5.2979,-5.2996,-5.3035,-5.3047,-5.3103,-5.3113,-5.3122,-5.3125,-5.3123,-5.3122,-5.3138,-5.3133,-5.3128,-5.3127,-5.3127,-5.3126,0,-5.2681,-5.2701,-5.2763,-5.2802,-5.2813,-5.2852,-5.2885,-5.2919,-5.2936,-5.2985,-5.2997,-5.3024,-5.307,-5.3088,-5.3144,-5.3152,-5.3217,-5.3215,-5.3205,-5.3206,-5.3242,-5.3239,-5.3354,-5.3371,-5.3277,-5.3278,-5.3279,0,-5.2726,-5.2764,-5.2808,-5.2834,-5.2856,-5.2898,-5.2926,-5.2942,-5.2971,-5.3015,-5.3044,-5.309,-5.3128,-5.3203,-5.3227,-5.327,-5.327,-5.3308,-5.3277,-5.3274,-5.3272,-5.327,-5.3274,-5.3314,-5.3314,-5.3315,-5.3316,0,-5.2805,-5.2813,-5.2853,-5.2898,-5.2931,-5.2967,-5.3001,-5.3023,-5.3044,-5.3076,-5.3124,-5.3154,-5.3213,-5.3259,-5.3305,-5.3326,-5.3325,-5.3326,-5.3337,-5.3335,-5.3328,-5.3333,-5.3222,-5.3323,-5.3322,-5.3322,-5.3321,-5.3321,-5.2859,-5.2892,-5.2929,-5.2975,-5.3003,-5.3036,-5.307,-5.3092,-5.3133,-5.3182,-5.3189,-5.3241,-5.3277,-5.3338,-5.3362,-5.3403,-5.3393,-5.3408,-5.3412,-5.3416,-5.3419,-5.3321,-5.3411,-5.3411,-5.3411,-5.3411,-5.341,0,-5.2938,-5.2962,-5.3004,-5.3053,-5.3089,-5.3086,-5.3125,-5.3155,-5.3201,-5.3235,-5.3273,-5.333,-5.3376,-5.3404,-5.3451,-5.3478,-5.3479,-5.349,-5.3488,-5.3494,-5.3425,-5.3411,-5.3489,-5.3489,-5.3489,-5.3489,-5.3489,-5.3489,-5.2983,-5.3041,-5.3054,-5.3126,-5.315,-5.3202,-5.3225,-5.3255,-5.3283,-5.3346,-5.3385,-5.3404,-5.3436,-5.3485,-5.3528,-5.3535,-5.3552,-5.3564,-5.3571,-5.3506,-5.3498,-5.349,-5.3478,-5.3568,-5.3568,-5.3636,-5.3637,-5.3637]}]]